This demonstration page uses our WeatherBlox Daily Observations layout. Learn more.

Left ArrowRight Arrow

39.92423, -83.80882

Hourly Observations for November 21, 2015

Temp ( °F °C ) Dew Point ( °F °C ) Humidity (%) Winds ( mph kmh ) Pressure ( in mb ) Visibility ( mi km ) Precip ( " mm )
12:56 am 00:56 Mostly Clear 38 3.3 28 -2.2 68 68 ENE 5 7 30.22 1023 10 16.0934 0 0
1:56 am 01:56 Partly Cloudy 38 3.3 27 -2.7 65 65 E 7 11 30.2 1023 10 16.0934 0 0
2:56 am 02:56 Mostly Cloudy 38 3.3 25 -3.8 60 60 ENE 8 13 30.19 1023 10 16.0934 0 0
3:56 am 03:56 Cloudy 38 3.3 25 -3.8 60 60 ENE 8 13 30.17 1022 10 16.0934 0 0
4:56 am 04:56 Cloudy 38 3.3 24 -4.4 57 57 ENE 7 11 30.15 1021 10 16.0934 0 0
5:56 am 05:56 Mostly Clear 35 1.6 23 -5 62 62 ENE 9 15 30.12 1020 10 16.0934 0 0
6:56 am 06:56 Clear 32 0 22 -5.5 67 67 E 9 15 30.09 1019 10 16.0934 0 0
7:56 am 07:56 Sunny 33 0.5 23 -5 67 67 E 10 17 30.06 1018 10 16.0934 0 0
8:56 am 08:56 Sunny 39 3.8 21 -6.1 49 49 E 14 22 30.03 1017 10 16.0934 0 0
9:56 am 09:56 Sunny 44 6.6 22 -5.5 42 42 ESE 20 31 29.97 1015 10 16.0934 0 0
10:56 am 10:56 Mostly Sunny 47 8.3 23 -5 39 39 SE 16 26 29.92 1013 10 16.0934 0 0
11:56 am 11:56 Sunny 49 9.4 25 -3.8 40 40 SE 17 28 29.86 1011 10 16.0934 0 0
12:56 pm 12:56 Partly Cloudy 51 10.5 27 -2.7 40 40 S 14 22 29.81 1010 10 16.0934 0 0
1:56 pm 13:56 Cloudy 49 9.4 30 -1.1 48 48 SSW 9 15 29.78 1009 10 16.0934 0 0
2:56 pm 14:56 Cloudy 46 7.7 37 2.7 71 71 SSW 13 20 29.76 1008 10 16.0934 0 0
3:56 pm 15:56 Cloudy with Light Rain 44 6.6 41 5 90 90 SSW 12 19 29.77 1008 6 9.65604 0.03 0.762
4:56 pm 16:56 Cloudy 39 3.8 36 2.2 89 89 SW 26 43 29.82 1010 10 16.0934 0.03 0.762
5:56 pm 17:56 Cloudy 38 3.3 34 1.1 86 86 SW 23 37 29.84 1011 10 16.0934 0 0
6:56 pm 18:56 Cloudy 37 2.7 33 0.5 86 86 SW 22 35 29.89 1012 10 16.0934 0 0
7:56 pm 19:56 Cloudy 36 2.2 32 0 86 86 SW 23 37 29.93 1013 10 16.0934 0 0
8:56 pm 20:56 Cloudy 35 1.6 31 -0.5 86 86 WSW 16 26 29.96 1014 10 16.0934 0 0
9:56 pm 21:56 Cloudy 35 1.6 31 -0.5 86 86 WSW 15 24 30 1016 10 16.0934 0 0
10:56 pm 22:56 Cloudy 34 1.1 31 -0.5 89 89 W 13 20 30.04 1017 10 16.0934 0 0.0254
11:12 pm 23:12 Cloudy 34 1 30 -1 87 87 W 16 26 30.09 1019 10 16.0934 0 0
11:56 pm 23:56 Cloudy 34 1.1 30 -1.1 85 85 W 17 28 30.06 1018 10 16.0934 0 0

Powered by AerisWeather